TimeEST,TemperatureF,Dew PointF,Humidity,Sea Level PressureIn,VisibilityMPH,Wind Direction,Wind SpeedMPH,Gust SpeedMPH,PrecipitationIn,Events,Conditions,WindDirDegrees,DateUTC
12:15 AM,46.4,44.6,93,30.25,10.0,Calm,Calm,-,N/A,,Overcast,0,2012-12-03 05:15:00
12:35 AM,46.4,42.8,87,30.25,10.0,Calm,Calm,-,N/A,,Overcast,0,2012-12-03 05:35:00
12:55 AM,46.4,42.8,87,30.26,10.0,Calm,Calm,-,N/A,,Overcast,0,2012-12-03 05:55:00
1:15 AM,46.4,42.8,87,30.26,10.0,Calm,Calm,-,N/A,,Overcast,0,2012-12-03 06:15:00
1:35 AM,46.4,44.6,93,30.26,10.0,Calm,Calm,-,N/A,,Overcast,0,2012-12-03 06:35:00
1:55 AM,46.4,42.8,87,30.26,10.0,Calm,Calm,-,N/A,,Overcast,0,2012-12-03 06:55:00
2:15 AM,48.2,42.8,82,30.26,10.0,WSW,3.5,-,N/A,,Overcast,240,2012-12-03 07:15:00
2:35 AM,48.2,42.8,82,30.26,10.0,SW,3.5,-,N/A,,Overcast,220,2012-12-03 07:35:00
2:55 AM,46.4,42.8,87,30.26,10.0,Calm,Calm,-,N/A,,Overcast,0,2012-12-03 07:55:00
3:15 AM,46.4,42.8,87,30.26,10.0,Calm,Calm,-,N/A,,Overcast,0,2012-12-03 08:15:00
3:35 AM,46.4,42.8,87,30.26,10.0,SW,5.8,-,N/A,,Mostly Cloudy,230,2012-12-03 08:35:00
3:55 AM,46.4,41.0,81,30.25,10.0,South,3.5,-,N/A,,Clear,190,2012-12-03 08:55:00
4:15 AM,44.6,42.8,93,30.25,10.0,South,3.5,-,N/A,,Clear,180,2012-12-03 09:15:00
4:35 AM,44.6,42.8,93,30.26,10.0,Calm,Calm,-,N/A,,Mostly Cloudy,0,2012-12-03 09:35:00
4:55 AM,46.4,42.8,87,30.26,10.0,SW,3.5,-,N/A,,Overcast,220,2012-12-03 09:55:00
5:15 AM,44.6,41.0,87,30.25,10.0,WSW,4.6,-,N/A,,Scattered Clouds,240,2012-12-03 10:15:00
5:35 AM,46.4,42.8,87,30.26,10.0,WSW,3.5,-,N/A,,Mostly Cloudy,240,2012-12-03 10:35:00
5:55 AM,44.6,41.0,87,30.26,10.0,South,3.5,-,N/A,,Mostly Cloudy,170,2012-12-03 10:55:00
6:15 AM,44.6,41.0,87,30.26,10.0,Calm,Calm,-,N/A,,Scattered Clouds,0,2012-12-03 11:15:00
6:35 AM,44.6,42.8,93,30.27,10.0,SSW,4.6,-,N/A,,Scattered Clouds,200,2012-12-03 11:35:00
6:55 AM,42.8,41.0,93,30.28,7.0,Calm,Calm,-,N/A,,Mostly Cloudy,0,2012-12-03 11:55:00
7:15 AM,44.6,42.8,93,30.28,10.0,Calm,Calm,-,N/A,,Overcast,0,2012-12-03 12:15:00
7:35 AM,46.4,42.8,87,30.28,10.0,South,3.5,-,N/A,,Overcast,190,2012-12-03 12:35:00
7:55 AM,46.4,42.8,87,30.29,10.0,Calm,Calm,-,N/A,,Mostly Cloudy,0,2012-12-03 12:55:00
8:15 AM,46.4,42.8,87,30.29,10.0,Calm,Calm,-,N/A,,Scattered Clouds,0,2012-12-03 13:15:00
8:35 AM,46.4,42.8,87,30.29,7.0,Calm,Calm,-,N/A,,Scattered Clouds,0,2012-12-03 13:35:00
8:55 AM,46.4,44.6,93,30.30,10.0,Calm,Calm,-,N/A,,Clear,0,2012-12-03 13:55:00
9:15 AM,51.8,44.6,76,30.30,10.0,Calm,Calm,-,N/A,,Scattered Clouds,0,2012-12-03 14:15:00
9:35 AM,51.8,44.6,76,30.30,10.0,Calm,Calm,-,N/A,,Mostly Cloudy,0,2012-12-03 14:35:00
9:55 AM,53.6,46.4,77,30.30,10.0,Calm,Calm,-,N/A,,Overcast,0,2012-12-03 14:55:00
10:15 AM,55.4,46.4,72,30.30,10.0,West,4.6,-,N/A,,Overcast,270,2012-12-03 15:15:00
10:35 AM,55.4,44.6,67,30.30,10.0,SW,5.8,-,N/A,,Mostly Cloudy,220,2012-12-03 15:35:00
10:55 AM,55.4,44.6,67,30.30,10.0,WSW,6.9,-,N/A,,Overcast,240,2012-12-03 15:55:00
11:15 AM,55.4,44.6,67,30.30,10.0,WSW,4.6,-,N/A,,Overcast,240,2012-12-03 16:15:00
11:35 AM,57.2,46.4,67,30.29,10.0,WSW,8.1,-,N/A,,Overcast,240,2012-12-03 16:35:00
11:55 AM,57.2,46.4,67,30.28,10.0,West,6.9,-,N/A,,Overcast,280,2012-12-03 16:55:00
12:15 PM,59.0,46.4,63,30.28,10.0,West,6.9,-,N/A,,Overcast,260,2012-12-03 17:15:00
12:35 PM,59.0,46.4,63,30.27,10.0,West,4.6,-,N/A,,Overcast,260,2012-12-03 17:35:00
12:55 PM,59.0,46.4,63,30.26,10.0,WSW,5.8,-,N/A,,Overcast,250,2012-12-03 17:55:00
1:15 PM,59.0,46.4,63,30.26,10.0,West,3.5,-,N/A,,Overcast,270,2012-12-03 18:15:00
1:55 PM,59.0,46.4,63,30.25,10.0,WSW,3.5,-,N/A,,Mostly Cloudy,240,2012-12-03 18:55:00
2:15 PM,60.8,46.4,59,30.24,10.0,Calm,Calm,-,N/A,,Overcast,0,2012-12-03 19:15:00
2:35 PM,60.8,46.4,59,30.24,10.0,WSW,5.8,-,N/A,,Mostly Cloudy,240,2012-12-03 19:35:00
2:55 PM,60.8,44.6,55,30.24,10.0,WSW,3.5,-,N/A,,Mostly Cloudy,240,2012-12-03 19:55:00
3:15 PM,59.0,44.6,59,30.24,10.0,WSW,3.5,-,N/A,,Scattered Clouds,240,2012-12-03 20:15:00
3:35 PM,60.8,44.6,55,30.24,10.0,Calm,Calm,-,N/A,,Mostly Cloudy,0,2012-12-03 20:35:00
3:55 PM,59.0,44.6,59,30.24,10.0,Calm,Calm,-,N/A,,Mostly Cloudy,0,2012-12-03 20:55:00
4:15 PM,59.0,44.6,59,30.24,10.0,Calm,Calm,-,N/A,,Scattered Clouds,0,2012-12-03 21:15:00
4:35 PM,57.2,44.6,63,30.25,10.0,Calm,Calm,-,N/A,,Scattered Clouds,0,2012-12-03 21:35:00
4:55 PM,55.4,44.6,67,30.25,10.0,Calm,Calm,-,N/A,,Scattered Clouds,0,2012-12-03 21:55:00
5:15 PM,53.6,44.6,72,30.25,10.0,Calm,Calm,-,N/A,,Scattered Clouds,0,2012-12-03 22:15:00
5:35 PM,53.6,44.6,72,30.26,10.0,Calm,Calm,-,N/A,,Scattered Clouds,0,2012-12-03 22:35:00
5:55 PM,51.8,44.6,76,30.26,10.0,Calm,Calm,-,N/A,,Clear,0,2012-12-03 22:55:00
6:15 PM,51.8,44.6,76,30.26,10.0,Calm,Calm,-,N/A,,Clear,0,2012-12-03 23:15:00
6:35 PM,50.0,44.6,82,30.26,10.0,Calm,Calm,-,N/A,,Clear,0,2012-12-03 23:35:00
6:55 PM,48.2,42.8,82,30.26,10.0,Calm,Calm,-,N/A,,Clear,0,2012-12-03 23:55:00
7:15 PM,48.2,44.6,87,30.26,10.0,Calm,Calm,-,N/A,,Clear,0,2012-12-04 00:15:00
7:35 PM,48.2,44.6,87,30.26,10.0,Calm,Calm,-,N/A,,Clear,0,2012-12-04 00:35:00
7:55 PM,44.6,42.8,93,30.26,7.0,Calm,Calm,-,N/A,,Clear,0,2012-12-04 00:55:00
8:15 PM,44.6,42.8,93,30.26,10.0,Calm,Calm,-,N/A,,Clear,0,2012-12-04 01:15:00
8:35 PM,44.6,42.8,93,30.27,10.0,North,3.5,-,N/A,,Clear,10,2012-12-04 01:35:00
8:55 PM,42.8,39.2,87,30.27,7.0,Calm,Calm,-,N/A,,Clear,0,2012-12-04 01:55:00
9:15 PM,42.8,41.0,93,30.27,7.0,Calm,Calm,-,N/A,,Clear,0,2012-12-04 02:15:00
9:35 PM,41.0,39.2,93,30.26,7.0,Calm,Calm,-,N/A,,Clear,0,2012-12-04 02:35:00
9:55 PM,41.0,39.2,93,30.26,7.0,Calm,Calm,-,N/A,,Clear,0,2012-12-04 02:55:00
10:15 PM,41.0,39.2,93,30.26,5.0,Calm,Calm,-,N/A,,Clear,0,2012-12-04 03:15:00
10:35 PM,41.0,39.2,93,30.26,1.0,NNE,3.5,-,N/A,,Mist,30,2012-12-04 03:35:00
10:55 PM,39.2,37.4,93,30.26,1.0,NNE,3.5,-,N/A,,Mist,30,2012-12-04 03:55:00
11:15 PM,39.2,37.4,93,30.27,1.5,NNE,4.6,-,N/A,,Mist,20,2012-12-04 04:15:00
11:35 PM,37.4,37.4,100,30.27,1.5,Calm,Calm,-,N/A,,Mist,0,2012-12-04 04:35:00
11:55 PM,37.4,37.4,100,30.27,0.2,ENE,3.5,-,N/A,Fog,Fog,60,2012-12-04 04:55:00